Location: Alafon
(8.4500°N, 4.2333°E)
Time: 00:15:56
(UTC+00:00)

Explorer 7 - Pass Details

Date: 24 July 2021
Orbit: 484 x 676 km, 50.3° (Epoch: 22 September)

Event Time Altitude Azimuth Distance (km) Brightness Sun altitude
Rises 06:13:18 0° 257° (WSW) 2,535 9.5 8.4°
Reaches altitude 10° 06:16:46 10° 291° (WNW) 1,670 8.9 9.2°
Maximum altitude 06:18:07 12° 312° (NW) 1,580 8.9 9.5°
Drops below altitude 10° 06:19:29 10° 333° (NNW) 1,688 9.3 9.8°
Sets 06:23:03 0° 7° (N) 2,607 10.6 10.7°
